1488416400.58,58645,7.44,72480.5,-12.77,-43.29,-42.45,0,*62
1488416401.82,58646,7.44,72480.5,-12.75,-43.15,-42.51,0,*69
1488416403.05,58647,7.44,72484.8,-12.77,-43.21,-42.37,0,*6D
1488416404.29,58648,7.44,72484.3,-12.77,-43.21,-42.63,0,*63
1488416405.51,58649,7.44,72484.5,-12.77,-43.61,-42.63,0,*66
1488416406.73,58650,7.44,72482.3,-12.73,-43.41,-42.75,0,*6F
1488416408.0,58651,7.44,72478.5,-12.75,-43.55,-42.75,0,*6D
1488416409.24,58652,7.44,72482.3,-12.75,-43.75,-42.89,0,*6F
1488416410.47,58653,7.44,72478.8,-12.77,-43.87,-43.21,0,*62
1488416411.68,58654,7.44,72476.8,-12.77,-43.87,-43.01,0,*67
1488416412.94,58655,7.44,72482.5,-12.77,-43.67,-42.83,0,*63
1488416414.15,58656,7.44,72476.8,-12.77,-43.75,-42.89,0,*69
1488416415.42,58657,7.44,72478.3,-12.77,-43.67,-42.95,0,*66
1488416416.68,58658,7.44,72476.5,-12.75,-43.41,-42.69,0,*6C
1488416417.93,58659,7.44,72476.5,-12.81,-43.67,-42.75,0,*6F
1488416419.22,58660,7.44,72480.3,-12.79,-43.09,-42.05,0,*6D
1488416420.51,58661,7.44,72476.5,-12.79,-42.83,-42.05,0,*6F
1488416421.79,58662,7.44,72476.5,-12.79,-43.21,-42.45,0,*61
1488416423.06,58663,7.44,72478.0,-12.79,-43.81,-43.01,0,*6B
1488416424.33,58664,7.44,72472.8,-12.79,-43.67,-42.75,0,*66
1488416425.63,58665,7.44,72472.8,-12.79,-43.67,-42.95,0,*69
1488416426.84,58666,7.44,72474.5,-12.81,-43.87,-43.01,0,*6F
1488416428.11,58667,7.44,72474.5,-12.79,-43.61,-42.83,0,*6A
1488416429.35,58668,7.44,72474.3,-12.81,-43.67,-43.01,0,*6F
1488416430.6,58669,7.44,72474.0,-12.79,-43.41,-42.63,0,*68
1488416431.87,58670,7.44,72474.3,-12.81,-43.81,-42.95,0,*62
1488416433.13,58671,7.44,72472.3,-12.81,-43.81,-42.95,0,*63
1488416434.37,58672,7.44,72478.5,-12.81,-43.81,-43.01,0,*6C
1488416435.64,58673,7.44,72472.8,-12.81,-43.67,-42.95,0,*69
1488416436.89,58674,7.44,72476.8,-12.81,-43.61,-42.83,0,*6F
1488416438.12,58675,7.44,72480.8,-12.85,-43.87,-43.09,0,*61
1488416439.36,58676,7.44,72478.5,-12.85,-43.67,-42.89,0,*65
1488416440.61,58677,7.44,72478.8,-12.85,-43.75,-43.09,0,*6E
1488416441.85,58678,7.44,72478.8,-12.85,-43.87,-43.29,0,*6E
1488416443.12,58679,7.44,72476.3,-12.87,-44.01,-43.35,0,*69
1488416444.36,58680,7.44,72476.8,-12.85,-43.67,-42.89,0,*6C
1488416445.63,58681,7.44,72476.5,-12.87,-43.55,-42.75,0,*6D
1488416446.88,58682,7.44,72482.0,-12.87,-43.41,-42.75,0,*6B
1488416448.12,58683,7.44,72476.8,-12.87,-43.15,-42.51,0,*6D
1488416449.38,58684,7.44,72480.0,-12.87,-43.35,-42.57,0,*6E
1488416450.62,58685,7.44,72476.5,-12.85,-43.35,-42.45,0,*6E
1488416451.86,58686,7.44,72476.0,-12.85,-43.35,-42.31,0,*6E
1488416453.13,58687,7.44,72476.5,-12.85,-43.29,-42.31,0,*62
1488416454.39,58688,7.44,72472.5,-12.87,-43.35,-42.57,0,*62
1488416455.66,58689,7.44,72472.0,-12.87,-43.41,-42.69,0,*6D
1488416456.9,58690,7.44,72474.3,-12.87,-43.35,-42.37,0,*6D
1488416458.14,58691,7.44,72472.0,-12.85,-43.29,-42.63,0,*62
1488416459.38,58692,7.44,72472.0,-12.85,-43.09,-42.25,0,*61
1488416460.62,58693,7.44,72472.8,-12.85,-42.89,-42.05,0,*6B
1488416461.86,58694,7.44,72474.8,-12.85,-43.01,-41.93,0,*61
1488416463.16,58695,7.44,72474.0,-12.87,-43.09,-42.31,0,*61
1488416464.4,58696,7.44,72472.3,-12.85,-43.09,-42.13,0,*60
1488416465.64,58697,7.44,72474.3,-12.85,-43.15,-42.45,0,*6F
1488416466.86,58698,7.44,72474.3,-12.85,-43.49,-42.63,0,*6D
1488416468.12,58699,7.44,72472.3,-12.81,-43.21,-42.57,0,*61
1488416469.35,58700,7.44,72476.5,-12.85,-43.15,-42.45,0,*60
1488416470.57,58701,7.44,72474.0,-12.85,-43.01,-42.25,0,*62
1488416471.79,58702,7.44,72472.3,-12.85,-43.35,-42.63,0,*64
1488416473.03,58703,7.44,72472.3,-12.85,-43.55,-42.63,0,*63
1488416474.28,58704,7.44,72472.0,-12.85,-43.75,-42.95,0,*6F
1488416475.55,58705,7.44,72468.5,-12.85,-43.55,-42.69,0,*6F
1488416476.77,58706,7.44,72470.8,-12.85,-43.49,-42.63,0,*6B
1488416478.04,58707,7.44,72474.5,-12.87,-43.61,-42.69,0,*68
1488416479.28,58708,7.44,72468.5,-12.85,-43.49,-42.69,0,*6F
1488416480.55,58709,7.44,72470.0,-12.85,-43.55,-42.69,0,*63
1488416481.77,58710,7.44,72468.8,-12.85,-43.49,-42.63,0,*6C
1488416483.01,58711,7.44,72470.8,-12.85,-43.55,-42.63,0,*60
1488416484.28,58712,7.44,72466.8,-12.87,-43.41,-42.69,0,*6E
1488416485.55,58713,7.44,72470.3,-12.85,-43.67,-42.83,0,*6D
1488416486.8,58714,7.44,72468.5,-12.87,-43.61,-42.75,0,*67
1488416488.07,58715,7.44,72468.8,-12.87,-43.41,-42.57,0,*64
1488416489.36,58716,7.44,72464.3,-12.87,-43.21,-42.31,0,*61
1488416490.62,58717,7.44,72464.3,-12.87,-43.35,-42.57,0,*65
1488416491.89,58718,7.44,72466.3,-12.87,-43.41,-42.69,0,*64
1488416493.16,58719,7.44,72468.0,-12.87,-43.15,-42.19,0,*63
1488416494.4,58720,7.44,72460.3,-12.87,-43.41,-42.51,0,*64
1488416495.66,58721,7.44,72464.0,-12.87,-43.35,-42.57,0,*60
1488416496.91,58722,7.44,72466.5,-12.85,-43.29,-42.51,0,*6A
1488416498.17,58723,7.44,72466.5,-12.87,-43.41,-42.69,0,*6C
1488416499.44,58724,7.44,72464.0,-12.85,-43.29,-42.31,0,*6A
1488416500.66,58725,7.44,72460.0,-12.85,-43.35,-42.63,0,*61
1488416501.95,58726,7.44,72464.5,-12.87,-43.55,-42.69,0,*6C
1488416503.22,58727,7.44,72464.8,-12.87,-43.35,-42.57,0,*66
1488416504.48,58728,7.44,72470.5,-12.87,-43.41,-42.69,0,*67
1488416505.75,58729,7.44,72468.3,-12.87,-43.41,-42.57,0,*6B
1488416507.02,58730,7.44,72466.5,-12.87,-43.41,-42.57,0,*63
1488416508.28,58731,7.44,72468.5,-12.85,-43.29,-42.45,0,*6D
1488416509.54,58732,7.44,72470.8,-12.87,-43.21,-42.37,0,*61
1488416510.78,58733,7.44,72470.0,-12.87,-43.15,-42.37,0,*67
1488416512.06,58734,7.44,72472.0,-12.87,-43.21,-42.57,0,*61
1488416513.3,58735,7.44,72468.5,-12.85,-43.29,-42.51,0,*6C
1488416514.57,58736,7.44,72468.3,-12.85,-43.29,-42.31,0,*69
1488416515.83,58737,7.44,72470.3,-12.87,-43.35,-42.45,0,*64
1488416517.07,58738,7.44,72470.0,-12.85,-43.35,-42.45,0,*69
1488416518.34,58739,7.44,72470.0,-12.87,-43.41,-42.69,0,*67
1488416519.63,58740,7.44,72478.0,-12.87,-43.55,-42.69,0,*6C
1488416520.9,58741,7.44,72472.0,-12.85,-43.67,-42.69,0,*6E
1488416522.15,58742,7.44,72468.5,-12.87,-43.61,-42.75,0,*64
1488416523.4,58743,7.44,72474.8,-12.87,-43.61,-42.75,0,*65
1488416524.67,58744,7.44,72472.5,-12.87,-43.41,-42.57,0,*60
1488416525.91,58745,7.44,72474.0,-12.87,-43.35,-42.51,0,*64
1488416527.18,58746,7.44,72462.5,-12.87,-42.95,-42.13,0,*6A
1488416528.42,58747,7.44,72464.5,-12.87,-42.75,-41.87,0,*6B
1488416529.68,58748,7.44,72460.8,-12.87,-43.21,-42.37,0,*6C
1488416530.9,58749,7.44,72462.0,-12.85,-43.35,-42.51,0,*6A
1488416532.16,58750,7.44,72460.0,-12.87,-43.35,-42.57,0,*66
1488416533.37,58751,7.44,72460.3,-12.85,-43.15,-42.25,0,*62
1488416534.63,58752,7.44,72464.8,-12.85,-43.29,-42.45,0,*68
1488416535.87,58753,7.44,72466.8,-12.85,-43.35,-42.45,0,*64
1488416537.14,58754,7.44,72466.0,-12.87,-43.15,-42.19,0,*6A
1488416538.35,58755,7.44,72468.0,-12.85,-43.15,-42.25,0,*66
1488416539.62,58756,7.44,72466.5,-12.85,-43.29,-42.31,0,*6F
1488416540.86,58757,7.44,72468.3,-12.87,-43.35,-42.37,0,*67
1488416542.1,58758,7.44,72474.5,-12.85,-43.15,-42.31,0,*6E
1488416543.34,58759,7.44,72470.0,-12.87,-43.15,-42.37,0,*6B
1488416544.55,58760,7.44,72474.8,-12.85,-43.35,-42.37,0,*61
1488416545.81,58761,7.44,72472.3,-12.85,-43.21,-42.31,0,*63
1488416547.03,58762,7.44,72468.5,-12.85,-43.01,-42.25,0,*67
1488416548.28,58763,7.44,72468.8,-12.85,-43.29,-42.51,0,*6F
1488416549.52,58764,7.44,72470.0,-12.85,-43.29,-42.51,0,*68
1488416550.79,58765,7.44,72472.3,-12.85,-43.29,-42.31,0,*6F
1488416552.06,58766,7.44,72474.0,-12.87,-43.15,-42.19,0,*6B
1488416553.3,58767,7.44,72472.3,-12.87,-43.41,-42.51,0,*67
1488416554.55,58768,7.44,72478.5,-12.87,-43.41,-42.51,0,*68
1488416555.81,58769,7.44,72478.5,-12.87,-43.35,-42.69,0,*61
1488416557.06,58770,7.44,72478.0,-12.87,-43.41,-42.51,0,*61
1488416558.32,58771,7.44,72472.8,-12.87,-43.35,-42.69,0,*68
1488416559.59,58772,7.44,72470.3,-12.87,-43.41,-42.57,0,*65
1488416560.86,58773,7.44,72472.3,-12.87,-43.41,-42.69,0,*69
1488416562.1,58774,7.44,72472.0,-12.85,-43.29,-42.63,0,*68
1488416563.34,58775,7.44,72474.3,-12.87,-43.35,-42.51,0,*67
1488416564.64,58776,7.44,72472.3,-12.87,-43.55,-42.69,0,*69
1488416565.9,58777,7.44,72472.3,-12.87,-43.35,-42.57,0,*63
1488416567.17,58778,7.44,72476.3,-12.87,-43.35,-42.31,0,*6C
1488416568.41,58779,7.44,72476.5,-12.87,-42.89,-41.99,0,*6A
1488416569.68,58780,7.44,72470.3,-12.87,-43.09,-42.13,0,*64
1488416570.9,58781,7.44,72474.0,-12.85,-43.01,-42.25,0,*6A
1488416572.13,58782,7.44,72480.0,-12.85,-43.15,-42.45,0,*6A
1488416573.43,58783,7.44,72478.3,-12.87,-43.09,-42.19,0,*6D
1488416574.69,58784,7.44,72480.8,-12.85,-42.83,-41.93,0,*6A
1488416575.9,58785,7.44,72476.3,-12.85,-42.51,-41.61,0,*69
1488416577.12,58786,7.44,72468.5,-12.81,-42.75,-41.87,0,*60
1488416578.39,58787,7.44,72472.3,-12.85,-43.09,-42.31,0,*61
1488416579.63,58788,7.44,72470.8,-12.81,-42.83,-41.87,0,*67
1488416580.88,58789,7.44,72472.8,-12.81,-42.37,-41.55,0,*66
1488416582.16,58790,7.44,72468.5,-12.79,-42.57,-41.81,0,*66
1488416583.4,58791,7.44,72468.3,-12.81,-42.45,-41.61,0,*6D
1488416584.64,58792,7.44,72466.0,-12.79,-42.75,-41.99,0,*6D
1488416585.91,58793,7.44,72466.0,-12.79,-42.57,-41.73,0,*68
1488416587.18,58794,7.44,72474.5,-12.81,-43.09,-42.19,0,*6D
1488416588.4,58795,7.44,72470.5,-12.81,-43.01,-42.25,0,*6B
1488416589.66,58796,7.44,72470.3,-12.81,-42.95,-42.05,0,*66
1488416590.94,58797,7.44,72468.3,-12.79,-43.01,-42.19,0,*61
1488416592.21,58798,7.44,72472.0,-12.79,-43.01,-42.05,0,*63
1488416593.45,58799,7.44,72478.3,-12.81,-43.09,-42.25,0,*6F
1488416594.75,58800,7.44,72468.8,-12.79,-43.09,-42.19,0,*68
1488416596.02,58801,7.44,72474.3,-12.79,-42.95,-41.61,0,*61
1488416597.29,58802,7.44,72474.0,-12.79,-42.75,-41.81,0,*62
1488416598.55,58803,7.44,72470.5,-12.77,-43.09,-42.19,0,*65
1488416599.77,58804,7.44,72472.0,-12.81,-42.63,-41.73,0,*69
1488416601.03,58805,7.44,72476.0,-12.79,-42.63,-41.81,0,*62
1488416602.29,58806,7.44,72472.8,-12.79,-43.21,-42.25,0,*6B
1488416603.58,58807,7.44,72474.0,-12.79,-43.09,-42.05,0,*62
1488416604.85,58808,7.44,72468.5,-12.79,-43.49,-42.57,0,*6E
1488416606.14,58809,7.44,72468.5,-12.79,-43.21,-42.19,0,*6B
1488416607.4,58810,7.44,72470.5,-12.79,-43.49,-42.57,0,*67
1488416608.65,58811,7.44,72472.8,-12.77,-43.67,-42.63,0,*63
1488416609.89,58812,7.44,72472.0,-12.79,-43.41,-42.37,0,*6B
1488416611.16,58813,7.44,72472.0,-12.79,-42.95,-41.87,0,*6A
1488416612.43,58814,7.44,72470.3,-12.79,-42.63,-41.55,0,*6B
1488416613.67,58815,7.44,72472.8,-12.79,-42.75,-41.61,0,*6A
1488416614.94,58816,7.44,72476.0,-12.79,-42.75,-41.81,0,*67
1488416616.22,58817,7.44,72472.0,-12.79,-42.83,-41.81,0,*6F
1488416617.49,58818,7.44,72464.3,-12.75,-42.75,-41.81,0,*65
1488416618.72,58819,7.44,72464.5,-12.77,-42.83,-41.87,0,*69
1488416619.97,58820,7.44,72468.0,-12.77,-42.95,-41.73,0,*6F
1488416621.21,58821,7.44,72468.0,-12.77,-42.63,-41.55,0,*63
1488416622.42,58822,7.44,72472.0,-12.77,-42.75,-41.61,0,*60
1488416623.69,58823,7.44,72472.3,-12.75,-42.51,-41.55,0,*62
1488416624.92,58824,7.44,72474.8,-12.77,-42.89,-41.81,0,*6B
1488416626.16,58825,7.44,72470.8,-12.75,-43.01,-41.99,0,*60
1488416627.45,58826,7.44,72474.0,-12.75,-42.95,-41.93,0,*65
1488416628.72,58827,7.44,72478.3,-12.75,-42.95,-41.99,0,*6E
1488416630.01,58828,7.44,72480.5,-12.75,-42.95,-41.81,0,*68
1488416631.25,58829,7.44,72476.0,-12.75,-42.89,-41.99,0,*6D
1488416632.51,58830,7.44,72480.3,-12.75,-43.15,-42.19,0,*6A
1488416633.78,58831,7.44,72478.8,-12.75,-43.15,-42.19,0,*6B
1488416635.04,58832,7.44,72482.3,-12.75,-43.15,-42.19,0,*68
1488416636.33,58833,7.44,72478.0,-12.75,-43.21,-42.19,0,*6E
1488416637.58,58834,7.44,72480.5,-12.75,-43.21,-42.37,0,*65
1488416638.79,58835,7.44,72478.3,-12.73,-42.51,-41.49,0,*6E
1488416640.03,58836,7.44,72480.8,-12.73,-42.95,-41.99,0,*68
1488416641.24,58837,7.44,72476.0,-12.73,-43.15,-42.13,0,*61
1488416642.45,58838,7.44,72478.3,-12.73,-43.15,-42.13,0,*6E
1488416643.68,58839,7.44,72474.3,-12.73,-43.21,-42.13,0,*68
1488416644.94,58840,7.44,72478.0,-12.75,-42.95,-41.99,0,*6F
1488416646.18,58841,7.44,72476.8,-12.75,-42.89,-41.99,0,*63
1488416647.44,58842,7.44,72478.0,-12.75,-43.15,-42.19,0,*6F
1488416648.69,58843,7.44,72476.5,-12.69,-43.55,-42.51,0,*6B
1488416649.93,58844,7.44,72474.3,-12.73,-43.61,-42.69,0,*6B
1488416651.19,58845,7.44,72476.0,-12.75,-43.61,-42.57,0,*61
1488416652.43,58846,7.44,72474.3,-12.77,-43.49,-42.45,0,*69
1488416653.67,58847,7.44,72474.8,-12.75,-43.41,-42.51,0,*67
1488416654.91,58848,7.44,72472.5,-12.77,-43.67,-42.63,0,*6F
1488416656.15,58849,7.44,72476.5,-12.77,-43.67,-42.75,0,*69
1488416657.39,58850,7.44,72474.5,-12.77,-43.81,-42.75,0,*69
1488416658.66,58851,7.44,72472.3,-12.77,-44.01,-42.95,0,*69
1488416659.9,58852,7.44,72472.5,-12.77,-44.01,-43.01,0,*66
1488416661.17,58853,7.44,72474.3,-12.79,-43.87,-42.95,0,*6C
1488416662.47,58854,7.44,72470.5,-12.79,-44.01,-42.95,0,*62
1488416663.74,58855,7.44,72472.3,-12.81,-43.81,-42.95,0,*6B
1488416665.0,58856,7.44,72472.3,-12.77,-43.81,-42.95,0,*61
1488416666.29,58857,7.44,72470.0,-12.79,-43.81,-42.83,0,*69
1488416667.56,58858,7.44,72472.0,-12.81,-44.01,-43.21,0,*67
1488416668.79,58859,7.44,72468.5,-12.81,-44.07,-43.21,0,*60
1488416670.03,58860,7.44,72474.8,-12.81,-44.07,-43.21,0,*6A
1488416671.3,58861,7.44,72472.5,-12.81,-44.01,-43.21,0,*6D
1488416672.52,58862,7.44,72472.0,-12.85,-44.27,-43.35,0,*6B
1488416673.79,58863,7.44,72474.3,-12.85,-44.13,-43.29,0,*60
1488416675.08,58864,7.44,72474.0,-12.87,-44.13,-43.09,0,*67
1488416676.35,58865,7.44,72470.5,-12.87,-44.13,-43.35,0,*69
1488416677.62,58866,7.44,72470.8,-12.87,-44.01,-43.15,0,*6B
1488416678.89,58867,7.44,72474.3,-12.87,-44.01,-43.15,0,*6A
1488416680.16,58868,7.44,72474.5,-12.89,-44.01,-43.09,0,*66
1488416681.46,58869,7.44,72474.5,-12.87,-44.01,-42.95,0,*6D
1488416682.76,58870,7.44,72472.8,-12.87,-44.01,-42.95,0,*65
1488416684.05,58871,7.44,72476.0,-12.91,-44.21,-43.21,0,*6F
1488416685.3,58872,7.44,72472.3,-12.89,-44.21,-43.35,0,*60
1488416686.57,58873,7.44,72472.5,-12.91,-44.27,-43.21,0,*6B
1488416687.87,58874,7.44,72476.0,-12.91,-44.21,-43.21,0,*6A
1488416689.14,58875,7.44,72476.3,-12.91,-44.07,-43.21,0,*6F
1488416690.4,58876,7.44,72480.3,-12.91,-43.87,-42.95,0,*6D
1488416691.65,58877,7.44,72476.0,-12.91,-43.61,-42.75,0,*6A
1488416692.92,58878,7.44,72476.5,-12.89,-43.55,-42.69,0,*66
1488416694.16,58879,7.44,72478.8,-12.89,-43.61,-42.69,0,*60
1488416695.46,58880,7.44,72476.5,-12.91,-43.67,-42.95,0,*6A
1488416696.73,58881,7.44,72476.8,-12.91,-43.87,-42.95,0,*65
1488416697.97,58882,7.44,72476.5,-12.91,-43.87,-43.01,0,*6A
1488416699.26,58883,7.44,72478.5,-12.91,-43.81,-42.83,0,*66
1488416700.55,58884,7.44,72476.5,-12.91,-43.67,-42.83,0,*69
1488416701.84,58885,7.44,72476.5,-12.91,-43.67,-42.83,0,*68
1488416703.1,58886,7.44,72476.0,-12.91,-43.81,-43.15,0,*6D
1488416704.37,58887,7.44,72474.8,-12.91,-43.87,-42.95,0,*63
1488416705.62,58888,7.44,72474.0,-12.91,-43.61,-42.75,0,*6A
1488416706.89,58889,7.44,72474.5,-12.91,-43.49,-42.57,0,*61
1488416708.14,58890,7.44,72474.0,-12.91,-43.49,-42.75,0,*69
1488416709.38,58891,7.44,72478.0,-12.91,-43.49,-42.75,0,*68
1488416710.65,58892,7.44,72478.3,-12.91,-43.81,-43.01,0,*6D
1488416711.92,58893,7.44,72474.5,-12.91,-43.87,-42.95,0,*66
1488416713.18,58894,7.44,72478.8,-12.91,-43.87,-42.95,0,*61
1488416714.45,58895,7.44,72474.0,-12.91,-43.61,-42.83,0,*6F
1488416715.71,58896,7.44,72478.0,-12.95,-43.75,-42.89,0,*67
1488416716.95,58897,7.44,72478.8,-12.95,-43.87,-42.89,0,*6B
1488416718.2,58898,7.44,72476.5,-12.95,-43.95,-43.01,0,*66
1488416719.49,58899,7.44,72482.0,-12.91,-43.81,-42.95,0,*6A
1488416720.78,58900,7.44,72476.8,-12.91,-43.67,-42.83,0,*64
1488416722.03,58901,7.44,72476.8,-12.95,-43.87,-42.89,0,*65
1488416723.28,58902,7.44,72478.5,-12.95,-43.75,-43.01,0,*6A
1488416724.52,58903,7.44,72478.0,-12.91,-44.07,-43.15,0,*68
1488416725.8,58904,7.44,72476.8,-12.95,-44.27,-43.29,0,*66
1488416727.08,58905,7.44,72478.8,-12.95,-44.27,-43.29,0,*67
1488416728.38,58906,7.44,72480.5,-12.95,-44.13,-43.29,0,*63
1488416729.62,58907,7.44,72478.5,-12.97,-44.27,-43.21,0,*6F
1488416730.84,58908,7.44,72478.0,-12.97,-43.95,-43.01,0,*6C
1488416732.06,58909,7.44,72476.3,-12.97,-44.07,-42.89,0,*60
1488416733.33,58910,7.44,72476.0,-12.97,-43.55,-42.69,0,*66
1488416734.6,58911,7.44,72476.5,-12.97,-43.67,-42.69,0,*66
1488416735.86,58912,7.44,72474.8,-12.97,-43.67,-42.83,0,*61
1488416737.11,58913,7.44,72476.5,-12.97,-43.55,-42.51,0,*6E
1488416738.38,58914,7.44,72474.5,-12.99,-43.75,-42.69,0,*6E
1488416739.62,58915,7.44,72474.8,-12.97,-43.75,-42.83,0,*65
1488416740.87,58916,7.44,72476.8,-12.97,-43.75,-42.69,0,*62
1488416742.13,58917,7.44,72472.8,-12.97,-43.67,-42.69,0,*60
1488416743.38,58918,7.44,72482.0,-12.99,-43.75,-42.51,0,*69
1488416744.63,58919,7.44,72480.0,-12.97,-43.55,-42.51,0,*64
1488416745.87,58920,7.44,72478.0,-12.97,-43.55,-42.25,0,*6D
1488416747.09,58921,7.44,72476.0,-12.97,-43.61,-42.51,0,*68
1488416748.32,58922,7.44,72472.8,-12.97,-43.49,-42.51,0,*61
1488416749.58,58923,7.44,72474.3,-12.97,-43.55,-42.45,0,*68
1488416750.82,58924,7.44,72474.0,-12.97,-43.55,-42.51,0,*6A
1488416752.09,58925,7.44,72470.5,-12.97,-43.55,-42.45,0,*6E
1488416753.33,58926,7.44,72468.3,-12.97,-43.55,-42.51,0,*68
1488416754.61,58927,7.44,72472.5,-12.95,-43.49,-42.45,0,*63
1488416755.86,58928,7.44,72472.8,-12.95,-43.49,-42.51,0,*69
1488416757.13,58929,7.44,72476.5,-12.95,-43.49,-42.45,0,*6D
1488416758.41,58930,7.44,72476.0,-12.95,-43.49,-42.31,0,*66
1488416759.68,58931,7.44,72478.3,-12.95,-43.29,-42.25,0,*64
1488416760.99,58932,7.44,72480.0,-12.95,-43.55,-42.31,0,*69
1488416762.26,58933,7.44,72476.3,-12.95,-43.55,-42.63,0,*6F
1488416763.54,58934,7.44,72480.0,-12.95,-43.55,-42.51,0,*69
1488416764.82,58935,7.44,72480.5,-12.95,-43.49,-42.31,0,*63
1488416766.09,58936,7.44,72476.3,-12.95,-43.29,-42.13,0,*66
1488416767.36,58937,7.44,72474.3,-12.95,-43.15,-42.05,0,*6F
1488416768.63,58938,7.44,72476.0,-12.95,-43.29,-42.25,0,*6D
1488416769.9,58939,7.44,72478.8,-12.95,-43.09,-42.13,0,*6B
1488416771.2,58940,7.44,72478.0,-12.91,-42.95,-41.81,0,*6D
1488416772.46,58941,7.44,72476.3,-12.95,-43.01,-41.87,0,*62
1488416773.72,58942,7.44,72474.0,-12.91,-43.15,-42.19,0,*64
1488416775.01,58943,7.44,72476.8,-12.91,-43.21,-42.05,0,*6F
1488416776.3,58944,7.44,72474.0,-12.91,-42.95,-41.81,0,*69
1488416777.57,58945,7.44,72472.3,-12.91,-43.29,-42.25,0,*63
1488416778.81,58946,7.44,72476.0,-12.91,-43.15,-41.99,0,*6B
1488416780.08,58947,7.44,72474.5,-12.91,-43.41,-42.19,0,*60
1488416781.32,58948,7.44,72478.8,-12.91,-43.49,-42.37,0,*6B
1488416782.61,58949,7.44,72476.3,-12.91,-43.29,-42.19,0,*60
1488416783.88,58950,7.44,72478.5,-12.91,-43.15,-42.05,0,*6A
1488416785.14,58951,7.44,72474.3,-12.91,-43.49,-42.45,0,*66
1488416786.41,58952,7.44,72472.8,-12.91,-43.29,-42.25,0,*65
1488416787.67,58953,7.44,72476.3,-12.91,-43.01,-41.93,0,*60
1488416788.96,58954,7.44,72470.8,-12.91,-42.83,-41.93,0,*6C
1488416790.23,58955,7.44,72470.3,-12.91,-43.01,-41.93,0,*66
1488416791.47,58956,7.44,72474.3,-12.91,-43.01,-41.99,0,*6F
1488416792.69,58957,7.44,72468.3,-12.89,-42.75,-41.73,0,*61
1488416793.96,58958,7.44,72470.5,-12.89,-42.57,-41.67,0,*6B
1488416795.2,58959,7.44,72470.3,-12.91,-42.63,-41.73,0,*61
1488416796.46,58960,7.44,72466.0,-12.89,-43.09,-41.93,0,*61
1488416797.7,58961,7.44,72464.0,-12.91,-43.15,-41.99,0,*6E
1488416798.95,58962,7.44,72464.3,-12.89,-42.75,-41.55,0,*63
1488416800.18,58963,7.44,72468.3,-12.89,-43.21,-42.13,0,*63
1488416801.45,58964,7.44,72474.0,-12.91,-43.61,-42.45,0,*6A
1488416802.69,58965,7.44,72474.5,-12.87,-43.35,-42.13,0,*6E
1488416803.91,58966,7.44,72468.0,-12.89,-43.61,-42.51,0,*64
1488416805.2,58967,7.44,72464.0,-12.87,-43.55,-42.31,0,*6A
1488416806.46,58968,7.44,72462.8,-12.87,-43.21,-42.13,0,*66
1488416807.73,58969,7.44,72462.5,-12.87,-43.21,-41.99,0,*66
1488416809.0,58970,7.44,72462.5,-12.87,-43.41,-42.31,0,*69
1488416810.25,58971,7.44,72466.8,-12.87,-43.41,-42.51,0,*6E
1488416811.5,58972,7.44,72468.3,-12.85,-43.49,-42.31,0,*61
1488416812.77,58973,7.44,72468.0,-12.87,-43.41,-42.19,0,*60
1488416813.98,58974,7.44,72472.5,-12.85,-43.35,-42.25,0,*69
1488416815.24,58975,7.44,72470.0,-12.87,-43.21,-42.13,0,*6A
1488416816.5,58976,7.44,72472.3,-12.87,-43.21,-42.13,0,*69
1488416817.77,58977,7.44,72470.8,-12.87,-43.41,-42.19,0,*64
1488416819.01,58978,7.44,72470.0,-12.85,-43.29,-42.13,0,*6D
1488416820.22,58979,7.44,72470.5,-12.85,-43.35,-42.25,0,*64
1488416821.49,58980,7.44,72472.8,-12.85,-43.29,-42.05,0,*6D
1488416822.73,58981,7.44,72474.8,-12.85,-43.09,-41.87,0,*67
1488416823.98,58982,7.44,72474.5,-12.85,-43.01,-41.67,0,*62
1488416825.23,58983,7.44,72472.3,-12.85,-42.89,-41.67,0,*62
1488416826.45,58984,7.44,72474.8,-12.85,-42.63,-41.41,0,*65
1488416827.66,58985,7.44,72472.3,-12.85,-42.63,-41.49,0,*6C
1488416828.9,58986,7.44,72470.8,-12.81,-43.09,-41.87,0,*64
1488416830.17,58987,7.44,72474.8,-12.81,-43.29,-42.19,0,*63
1488416831.42,58988,7.44,72476.5,-12.81,-42.95,-41.73,0,*65
1488416832.65,58989,7.44,72474.8,-12.81,-43.21,-41.99,0,*6E
1488416833.87,58990,7.44,72474.3,-12.81,-43.01,-41.73,0,*60
1488416835.17,58991,7.44,72470.8,-12.79,-42.95,-41.81,0,*67
1488416836.43,58992,7.44,72468.3,-12.81,-43.09,-41.81,0,*67
1488416837.67,58993,7.44,72472.8,-12.81,-43.29,-41.99,0,*6D
1488416838.93,58994,7.44,72474.3,-12.81,-43.21,-42.05,0,*64
1488416840.2,58995,7.44,72476.3,-12.79,-43.09,-41.99,0,*6E
1488416841.42,58996,7.44,72484.3,-12.81,-43.01,-41.99,0,*62
1488416842.65,58997,7.44,72484.5,-12.81,-43.21,-41.99,0,*61
1488416843.92,58998,7.44,72476.5,-12.79,-43.21,-41.87,0,*66
1488416845.16,58999,7.44,72480.3,-12.81,-42.75,-41.55,0,*6F
1488416846.38,59000,7.44,72470.3,-12.81,-42.75,-41.41,0,*62
1488416847.65,59001,7.44,72470.0,-12.79,-42.83,-41.61,0,*6F
1488416848.95,59002,7.44,72470.8,-12.79,-42.95,-41.55,0,*6C
1488416850.18,59003,7.44,72466.3,-12.77,-42.83,-41.61,0,*63
1488416851.42,59004,7.44,72468.3,-12.79,-42.75,-41.61,0,*63
1488416852.68,59005,7.44,72468.8,-12.75,-42.69,-41.49,0,*69
1488416853.92,59006,7.44,72470.3,-12.77,-42.95,-41.61,0,*61
1488416855.17,59007,7.44,72470.3,-12.77,-42.89,-41.67,0,*6B
1488416856.43,59008,7.44,72468.0,-12.75,-42.89,-41.55,0,*67
1488416857.68,59009,7.44,72466.3,-12.77,-42.95,-41.73,0,*6D
1488416858.94,59010,7.44,72466.8,-12.77,-42.57,-41.23,0,*6E
1488416860.21,59011,7.44,72468.0,-12.75,-43.15,-41.67,0,*6A
1488416861.48,59012,7.44,72464.3,-12.75,-42.95,-41.73,0,*65
1488416862.73,59013,7.44,72468.0,-12.75,-43.15,-41.93,0,*63
1488416864.02,59014,7.44,72466.3,-12.75,-42.95,-41.81,0,*6E
1488416865.27,59015,7.44,72470.0,-12.77,-42.95,-41.73,0,*60
1488416866.51,59016,7.44,72468.3,-12.77,-43.01,-41.81,0,*62
1488416867.76,59017,7.44,72474.5,-12.75,-43.15,-41.93,0,*67
1488416869.0,59018,7.44,72476.5,-12.75,-42.89,-41.73,0,*62
1488416870.26,59019,7.44,72470.0,-12.77,-43.21,-42.05,0,*60
1488416871.47,59020,7.44,72470.8,-12.77,-43.41,-42.25,0,*6E
1488416872.74,59021,7.44,72472.3,-12.77,-43.29,-42.19,0,*6E
1488416874.02,59022,7.44,72470.5,-12.79,-43.21,-42.05,0,*66
1488416875.26,59023,7.44,72466.5,-12.77,-43.09,-41.99,0,*65
1488416876.55,59024,7.44,72466.8,-12.75,-43.21,-42.19,0,*61
1488416877.81,59025,7.44,72470.3,-12.77,-42.95,-41.81,0,*6E
1488416879.06,59026,7.44,72468.8,-12.77,-43.01,-41.81,0,*61
1488416880.34,59027,7.44,72468.0,-12.75,-42.95,-41.93,0,*6D
1488416881.61,59028,7.44,72474.0,-12.79,-43.09,-41.99,0,*60
1488416882.85,59029,7.44,72472.8,-12.77,-43.09,-41.99,0,*6F
1488416884.11,59030,7.44,72472.0,-12.77,-43.21,-42.19,0,*66
1488416885.35,59031,7.44,72470.8,-12.77,-43.29,-42.25,0,*60
1488416886.58,59032,7.44,72474.0,-12.77,-43.29,-42.37,0,*60
1488416887.83,59033,7.44,72472.5,-12.79,-43.41,-42.25,0,*62
1488416889.07,59034,7.44,72472.8,-12.79,-43.41,-42.37,0,*66
1488416890.31,59035,7.44,72468.0,-12.79,-43.41,-42.25,0,*64
1488416891.53,59036,7.44,72470.0,-12.81,-43.49,-42.25,0,*68
1488416892.77,59037,7.44,72474.5,-12.81,-43.29,-41.99,0,*6B
1488416894.03,59038,7.44,72474.8,-12.81,-42.83,-41.81,0,*6C
1488416895.3,59039,7.44,72468.8,-12.79,-42.95,-41.61,0,*63
1488416896.59,59040,7.44,72470.8,-12.79,-43.09,-42.05,0,*68
1488416897.81,59041,7.44,72470.8,-12.81,-43.49,-42.37,0,*6B
1488416899.05,59042,7.44,72466.5,-12.79,-43.49,-42.37,0,*6F
1488416900.29,59043,7.44,72466.5,-12.79,-43.41,-42.25,0,*65
1488416901.53,59044,7.44,72468.8,-12.81,-43.29,-42.25,0,*6B